Location: ????
(33.1659°N, 35.6604°E)
Time: 03:31:54
(UTC+00:00)

CZ-3A R/B - Pass Details

Date: 20 September 2019
Orbit: 391 x 36854 km, 24.3° (Epoch: 22 October)

Event Time Altitude Azimuth Distance (km) Brightness Sun altitude
Rises 08:30:53 0° 219° (SW) 16,691 9.5 55.0°
Reaches altitude 10° 08:55:01 10° 212° (SSW) 20,866 10.2 56.9°
Drops below altitude 10° 15:40:34 10° 253° (WSW) 34,643 12.4 -1.5°
Maximum altitude 18:21:41 54° 198° (SSW) 2,313 4.7 -33.9°
Enters shadow 18:22:43 52° 177° (S) 2,109 4.4 -34.1°
